Theta_e
314 314 314 314 314 314 314 315 319 318 321 327 326 326 323 323 324 324 324 326 328 332 337 339 343 343 343 344 343 343 343 343 343 344 343 343 342 342 342 342 341 335 335 338
314 313 313 313 313 313 313 313 314 315 321 322 323 323 321 319 319 318 318 319 321 325 329 334 337 341 343 343 344 345 345 345 345 344 344 344 344 343 343 342 342 342 341 336
315 313 313 312 313 313 315 318 317 317 319 319 319 320 317 314 312 312 313 314 315 318 322 324 328 332 341 344 344 343 344 345 345 345 345 345 344 344 344 344 344 343 343 343
315 312 313 312 313 312 316 318 319 320 319 316 315 314 315 313 314 313 311 310 310 312 315 319 321 326 328 341 345 346 345 342 344 345 346 346 346 346 346 346 346 346 345 344
315 313 312 312 313 315 315 315 317 317 316 315 314 315 316 314 312 312 311 310 309 309 310 311 315 320 325 328 336 342 342 344 344 344 346 345 346 346 347 347 347 348 347 347
315 313 312 313 314 313 314 314 314 315 314 313 313 317 319 312 310 311 311 310 309 309 309 309 310 314 320 324 327 330 339 341 342 345 345 346 347 347 347 347 347 348 349 349
315 315 313 312 312 313 315 316 312 312 312 311 313 312 310 309 309 309 309 309 310 310 309 309 309 310 313 319 322 326 328 333 340 342 346 348 347 348 349 350 350 350 350 350
315 316 315 312 312 315 312 310 309 309 308 308 308 308 308 308 308 308 308 308 308 309 310 309 309 309 311 313 317 321 324 328 331 335 338 343 346 349 352 351 353 353 352 351
315 315 311 310 310 309 308 308 308 307 306 306 306 306 306 307 307 307 307 307 307 308 308 309 308 308 311 316 314 316 320 322 325 329 330 329 332 339 343 345 347 350 351 350
310 310 311 311 309 307 307 307 307 306 306 306 306 306 306 306 307 307 307 307 306 307 308 308 308 308 308 315 316 314 317 320 320 322 326 328 329 329 329 335 340 343 344 351
310 308 307 307 307 307 306 306 306 306 306 305 306 306 306 306 306 306 307 308 308 308 308 308 308 307 308 311 316 316 315 317 320 320 320 322 324 327 329 329 332 341 343 349
314 310 309 307 306 305 306 306 306 306 305 305 305 306 306 305 306 305 306 307 308 307 308 310 310 311 311 313 315 315 316 316 318 319 319 319 319 321 323 324 326 328 331 342
309 305 307 306 306 306 307 306 306 306 306 306 306 306 305 304 304 305 305 305 306 306 306 307 308 312 314 314 314 315 315 316 316 317 317 317 318 319 320 320 320 324 326 333
306 305 306 307 308 306 306 306 306 306 305 306 306 305 305 305 304 304 303 304 304 304 305 305 306 309 309 310 312 314 314 313 315 316 315 316 316 317 318 320 321 320 322 326
306 306 308 307 306 306 306 306 306 307 306 306 306 306 305 304 304 303 303 303 302 302 303 303 304 305 306 306 308 311 311 312 314 314 315 315 315 316 317 319 321 321 321 324
308 306 306 307 309 307 306 306 307 307 306 304 305 305 304 304 303 302 301 302 301 302 301 301 302 303 305 306 306 307 310 311 312 312 313 314 315 316 317 318 320 321 323 329
308 306 307 307 308 308 307 307 307 307 306 305 305 305 304 304 303 302 301 301 301 301 301 301 300 300 302 303 304 305 306 309 310 310 312 313 314 315 317 318 319 321 326 330
308 309 308 309 309 308 307 307 307 306 307 305 306 306 305 304 303 301 300 301 300 301 300 301 299 299 299 300 301 303 305 307 309 310 310 312 314 315 316 318 320 322 326 329
310 309 309 308 308 308 307 307 307 306 306 306 305 306 306 303 302 301 301 300 301 301 300 299 299 298 298 299 300 302 303 304 307 309 309 311 313 315 316 319 322 324 327 330
311 310 310 311 310 309 308 308 307 307 306 305 306 306 306 302 301 302 301 302 301 300 299 299 298 298 297 298 299 299 300 302 305 308 309 310 312 314 318 320 323 324 325 328
310 310 310 310 310 311 309 309 309 308 306 305 306 306 305 301 301 302 302 302 302 303 301 299 298 298 297 297 297 297 297 298 301 305 308 309 310 314 318 320 322 323 323 325
309 309 309 309 309 310 310 309 308 307 306 305 306 305 303 301 302 302 302 302 302 302 301 300 299 297 297 296 295 296 296 296 297 300 303 304 305 309 314 315 315 316 316 319
309 308 308 309 309 309 308 308 308 306 306 306 306 305 302 303 303 303 303 303 301 301 300 300 299 297 296 296 296 295 295 295 296 297 298 299 300 304 307 307 308 308 309 311
308 308 308 308 307 307 307 306 307 306 306 306 305 304 302 303 303 303 303 301 301 300 300 300 300 299 297 296 295 295 295 295 295 295 295 296 297 299 301 300 304 303 304 305
306 305 307 307 306 306 306 306 306 305 305 305 305 304 303 303 302 302 302 301 301 300 300 300 299 299 298 297 296 296 295 295 295 295 295 295 295 296 299 296 300 301 303 302
304 305 305 306 306 305 306 305 304 304 305 304 305 304 304 304 304 303 301 302 301 300 301 300 300 299 299 298 297 296 296 295 294 295 295 295 295 295 297 296 298 299 301 301
304 304 304 303 303 303 303 304 304 304 304 305 304 303 303 303 303 303 302 301 300 300 300 300 300 300 299 298 298 297 297 296 295 294 294 294 295 295 295 297 297 297 298 299
Wind_Speed
9 6 3 1 1 3 4 4 2 9 8 5 5 8 11 14 17 20 23 24 24 23 21 14 4 5 8 13 18 19 21 24 27 28 31 35 39 38 35 32 30 32 34 33
3 4 3 4 5 4 1 4 3 3 6 3 4 4 10 13 15 18 20 21 21 20 20 20 17 9 4 11 16 22 24 25 23 25 29 32 33 34 36 37 36 34 34 36
4 3 0 5 6 6 2 3 4 5 5 6 4 5 7 10 14 16 18 19 21 21 20 19 18 16 12 7 12 15 23 25 26 26 29 29 29 32 34 33 33 36 37 37
5 3 4 5 4 1 2 4 4 5 6 6 3 2 3 5 11 16 17 20 20 20 20 19 18 16 14 10 6 9 13 19 24 27 28 27 28 30 30 30 31 31 35 36
4 6 1 6 2 1 3 4 3 5 2 3 6 2 7 1 12 17 18 18 19 19 19 19 20 19 16 12 10 5 6 14 21 22 26 28 30 29 30 30 29 29 31 34
2 3 6 5 6 2 3 5 4 4 4 7 11 4 5 4 16 19 18 19 22 22 21 20 20 20 18 16 13 11 8 6 11 18 24 22 25 29 31 32 30 28 29 31
4 3 2 3 5 4 5 4 5 3 3 3 4 6 17 20 19 18 20 23 22 23 23 22 22 21 21 18 17 15 12 10 8 8 17 19 23 26 27 27 28 28 30 30
2 4 6 7 5 5 5 4 1 2 3 7 10 14 19 22 22 22 22 23 23 25 25 25 24 23 22 21 20 19 16 14 10 8 6 9 19 18 21 25 27 28 26 29
6 3 3 6 3 3 3 4 5 3 4 7 12 15 17 21 23 23 24 23 23 23 27 29 27 25 25 22 23 24 21 17 18 15 10 7 9 15 22 26 25 23 24 30
2 7 12 10 5 4 5 5 4 2 3 9 13 14 16 17 20 24 25 26 25 24 26 29 30 29 27 24 23 26 27 24 19 19 21 18 15 16 16 19 21 27 31 28
5 6 3 10 10 4 4 4 3 3 4 9 10 12 14 15 17 19 24 25 24 25 25 27 30 32 30 26 24 30 30 28 26 23 19 22 21 21 21 20 17 19 26 27
5 10 6 5 10 13 9 7 7 5 5 8 10 10 12 12 15 21 24 27 23 22 22 22 27 26 26 22 26 29 32 25 26 27 26 24 25 27 22 23 24 20 23 29
4 13 8 10 12 13 12 9 7 7 7 6 9 9 11 14 16 18 23 23 24 28 28 26 28 24 18 23 26 30 32 34 31 30 29 29 28 28 28 24 27 26 24 26
16 15 10 15 9 12 11 9 7 7 8 9 8 5 8 13 17 19 21 20 23 26 29 28 26 24 23 25 25 29 30 35 36 34 31 31 30 30 30 30 30 31 29 28
19 21 6 10 13 12 10 8 7 7 7 7 6 8 10 16 20 22 21 21 23 25 24 26 26 26 24 25 26 28 29 35 37 37 37 35 37 36 33 32 32 31 33 31
7 21 19 15 12 12 11 9 9 8 8 8 8 6 11 16 21 23 20 19 18 19 21 24 27 27 27 28 28 29 31 35 36 37 37 36 35 36 36 34 33 31 33 37
6 13 18 18 16 15 15 11 10 7 8 9 9 8 13 17 18 19 17 17 15 15 20 26 29 26 24 25 26 29 31 31 32 33 33 33 33 34 34 34 35 32 36 35
7 6 10 14 12 13 15 14 12 9 8 7 8 9 11 15 18 15 13 14 15 18 21 24 26 30 28 24 26 28 30 30 31 32 32 32 32 32 33 34 35 37 36 34
11 11 10 11 13 13 13 14 12 8 9 8 9 10 9 11 12 8 11 14 15 18 22 25 26 31 29 25 23 22 23 26 30 32 31 32 32 31 32 33 34 35 35 33
4 8 14 16 16 20 18 16 13 11 11 9 9 10 8 7 3 7 11 12 12 17 22 26 29 33 33 25 22 23 24 25 26 27 29 30 31 31 30 31 31 32 31 32
11 15 17 18 25 22 21 19 18 15 12 11 9 9 8 6 7 9 12 13 15 19 22 26 32 33 33 27 21 16 17 18 20 22 25 28 29 29 27 25 23 25 27 29
9 14 17 16 16 18 19 17 17 15 15 12 9 9 7 4 6 10 14 17 18 18 17 22 28 31 33 27 20 15 12 12 13 15 18 21 22 23 22 20 19 20 21 23
14 18 20 19 17 13 11 14 16 14 15 13 9 9 5 4 5 8 12 15 13 15 12 20 23 27 32 33 26 19 15 13 9 6 6 9 10 12 12 11 11 12 12 13
14 11 13 14 11 9 7 11 16 13 12 11 8 9 6 3 5 6 13 12 8 12 10 17 22 22 26 32 36 33 25 19 17 15 10 5 3 4 6 7 9 11 12 13
11 15 11 10 8 9 7 11 16 10 9 10 9 10 8 7 9 8 11 7 7 11 9 11 18 20 23 26 30 37 36 33 24 18 19 17 14 16 19 18 22 20 19 21
10 7 4 5 4 4 5 4 5 13 10 6 5 5 6 7 7 5 4 9 8 9 9 10 15 16 16 21 22 25 31 36 34 30 21 18 17 17 21 24 30 29 28 27
9 8 8 11 5 1 1 11 14 12 6 4 5 3 1 2 3 4 4 4 6 9 11 11 12 13 15 15 18 18 21 23 32 27 26 23 22 21 22 24 22 24 27 26
Wind_Direction
78 83 74 109 350 19 51 102 297 131 123 91 54 45 41 41 39 35 32 31 36 45 46 47 64 206 215 227 233 241 255 253 254 257 253 245 248 247 248 250 251 247 244 244
70 15 1 268 268 275 183 146 146 146 120 121 78 58 50 37 34 33 27 22 21 25 34 36 30 16 291 249 248 237 235 244 251 255 255 252 248 247 248 250 250 252 252 249
144 356 285 252 233 215 149 149 155 185 104 145 115 65 41 42 38 26 17 11 11 12 13 17 18 16 13 306 263 259 251 246 247 250 254 254 252 249 247 248 251 253 252 252
139 146 218 87 20 304 226 108 114 100 99 97 76 344 172 70 31 14 5 2 2 359 358 359 0 2 7 9 325 276 268 258 252 249 249 255 257 254 249 249 248 251 254 254
190 199 14 186 211 149 207 127 77 132 79 16 343 294 193 198 354 348 345 345 344 344 344 346 347 346 351 2 358 341 274 261 257 259 253 249 252 253 252 250 248 248 251 250
179 222 207 92 127 62 148 233 66 113 81 2 348 261 101 345 331 325 326 328 328 330 331 334 335 334 337 340 343 349 329 287 253 261 259 256 256 253 256 257 256 254 250 249
185 241 245 139 141 139 210 87 124 76 29 346 311 300 298 310 313 316 315 315 312 313 316 320 324 325 323 326 326 321 322 320 282 262 257 261 263 264 260 254 253 252 250 247
185 229 236 155 138 218 98 139 165 303 317 305 296 298 300 303 307 310 312 312 309 307 298 304 310 314 312 312 310 311 306 301 304 290 279 272 264 257 254 256 256 255 251 245
209 231 138 164 130 144 162 210 208 226 312 321 312 307 305 305 308 307 309 308 308 305 298 291 296 301 302 302 302 301 301 300 288 292 288 264 282 271 266 260 254 252 256 253
227 206 224 219 237 172 150 143 154 157 336 330 314 308 304 307 310 310 310 307 305 301 298 292 291 290 290 295 293 294 294 295 296 289 283 280 265 268 270 262 261 261 263 259
245 244 227 232 224 223 203 184 193 253 314 330 330 319 309 308 313 319 320 314 307 303 300 297 295 289 286 288 286 291 289 289 293 293 288 274 272 267 264 265 270 266 261 261
221 184 179 178 195 198 203 209 213 230 283 312 321 316 328 310 308 316 325 323 319 311 306 308 307 297 286 282 278 285 288 290 289 291 292 289 283 278 269 270 269 269 279 268
218 182 173 170 184 198 205 204 215 232 258 293 325 325 334 340 338 321 309 316 312 312 314 313 303 299 285 267 271 273 280 284 289 289 290 291 292 288 282 279 278 269 264 271
219 189 179 186 199 196 195 198 225 248 272 289 319 332 346 349 345 338 332 326 321 314 307 303 305 295 295 281 272 270 271 278 284 290 289 289 289 290 289 288 284 277 268 266
227 208 198 191 182 189 199 218 251 264 274 280 298 317 336 334 335 338 332 326 319 318 319 312 304 300 298 296 289 281 281 278 279 282 286 286 286 285 285 282 280 279 278 268
276 220 213 207 208 212 217 241 261 274 280 294 301 305 320 326 330 332 336 333 334 332 326 321 316 308 299 291 292 287 280 275 277 281 283 283 280 280 281 282 280 278 278 280
223 201 206 219 227 227 232 239 249 266 275 280 286 288 312 323 326 331 334 331 333 330 331 336 343 327 312 296 289 283 284 281 278 278 277 278 278 276 277 279 280 276 272 277
218 248 234 230 231 234 235 230 236 251 275 271 273 285 296 316 322 333 337 337 339 345 345 336 339 328 316 304 293 284 278 275 272 272 274 276 276 273 271 270 271 271 269 270
248 228 232 234 243 240 232 224 226 251 259 252 264 281 287 311 329 0 6 7 359 351 352 346 338 339 335 317 307 293 279 270 270 272 276 274 275 273 272 271 270 269 269 271
246 252 261 267 256 247 242 242 232 245 244 240 253 273 276 298 303 345 348 344 354 2 0 359 356 351 343 334 317 300 289 279 273 270 270 269 271 272 269 270 270 268 266 266
259 270 274 262 259 258 246 247 243 239 229 239 243 261 257 281 290 324 329 323 346 337 334 348 360 357 352 341 328 316 312 299 282 271 265 263 262 262 262 258 264 266 261 259
293 317 307 294 284 251 238 222 237 229 220 236 236 243 241 271 300 312 324 327 341 337 335 332 347 5 5 360 356 341 335 321 300 284 271 265 260 254 253 253 256 258 253 244
304 307 289 285 270 244 201 215 211 214 224 227 231 226 226 234 264 291 313 330 335 344 335 344 344 13 17 23 21 17 19 19 7 345 295 269 253 243 234 230 231 232 226 222
309 294 314 290 244 202 217 233 210 218 202 215 213 208 223 240 277 289 326 334 344 349 332 348 338 356 27 29 31 33 34 38 44 49 46 65 99 137 155 153 167 160 154 148
338 339 306 271 245 274 266 215 189 190 187 212 209 210 225 255 263 280 317 348 339 348 346 357 354 342 8 30 33 33 31 37 40 49 57 59 77 102 109 119 114 113 111 110
6 360 8 344 330 334 280 207 198 170 182 175 176 207 235 276 273 280 306 324 322 325 337 329 354 356 351 2 18 31 35 29 29 40 50 62 74 89 106 108 105 104 105 104
32 45 66 47 38 353 180 135 144 156 162 158 156 169 222 296 256 263 277 313 334 329 335 339 341 338 346 355 360 11 26 35 31 27 32 49 65 69 77 82 90 98 100 100